• In United States
  • List of Countries
  • For 7 days
  • Water Temperature
  • Satellite Maps
  • Weather Map
  • Weather Widgets
  • user-avatar
    Login

    Hourly Weather Lezhe

    Today, 22 August, Wednesday

    Time Temperature Precipitation Wind Pressure Humidity
    00:00 +23°C° 0 mm 2 mps 738 mmHg 61%
    01:00 +23°C° 0 mm 2 mps 738 mmHg 62%
    02:00 +21°C° 0 mm 2 mps 738 mmHg 63%
    03:00 +21°C° 0 mm 2 mps 738 mmHg 64%
    04:00 +21°C° 0 mm 2 mps 738 mmHg 65%
    05:00 +23°C° 0 mm 2 mps 738 mmHg 63%
    06:00 +25°C° 0 mm 2 mps 738 mmHg 61%
    07:00 +26°C° 0 mm 2 mps 738 mmHg 58%
    08:00 +28°C° 0.1 mm 2 mps 738 mmHg 52%
    09:00 +30°C° 0.1 mm 2 mps 738 mmHg 46%
    10:00 +32°C° 0.1 mm 1 mps 738 mmHg 39%
    11:00 +32°C° 0.1 mm 2 mps 738 mmHg 38%
    12:00 +34°C° 0.1 mm 2 mps 738 mmHg 37%
    13:00 +34°C° 0.1 mm 2 mps 737 mmHg 35%
    14:00 +34°C° 0.1 mm 3 mps 737 mmHg 38%
    15:00 +33°C° 0.1 mm 3 mps 737 mmHg 41%
    16:00 +31°C° 0.1 mm 3 mps 737 mmHg 44%
    17:00 +30°C° 0 mm 2 mps 737 mmHg 47%
    18:00 +28°C° 0 mm 2 mps 737 mmHg 50%
    19:00 +27°C° 0 mm 2 mps 737 mmHg 53%
    20:00 +26°C° 0 mm 2 mps 737 mmHg 54%
    21:00 +25°C° 0 mm 2 mps 737 mmHg 55%
    22:00 +24°C° 0 mm 2 mps 738 mmHg 55%
    23:00 +24°C° 0 mm 2 mps 737 mmHg 55%

    Tomorrow, 23 August, Thursday

    Time Temperature Precipitation Wind Pressure Humidity
    00:00 +24°C° 0 mm 2 mps 737 mmHg 55%
    01:00 +23°C° 0 mm 2 mps 737 mmHg 56%
    02:00 +23°C° 0 mm 2 mps 737 mmHg 55%
    03:00 +23°C° 0 mm 2 mps 737 mmHg 55%
    04:00 +23°C° 0 mm 2 mps 737 mmHg 55%
    05:00 +24°C° 0 mm 2 mps 737 mmHg 54%
    06:00 +25°C° 0 mm 2 mps 737 mmHg 53%
    07:00 +26°C° 0 mm 2 mps 737 mmHg 53%
    08:00 +28°C° 0 mm 2 mps 737 mmHg 47%
    09:00 +30°C° 0 mm 2 mps 737 mmHg 41%
    10:00 +32°C° 0 mm 1 mps 737 mmHg 36%
    11:00 +34°C° 0.1 mm 2 mps 736 mmHg 35%
    12:00 +34°C° 0.1 mm 2 mps 736 mmHg 34%
    13:00 +34°C° 0.1 mm 3 mps 736 mmHg 34%
    14:00 +33°C° 0.2 mm 3 mps 735 mmHg 37%
    15:00 +33°C° 0.2 mm 3 mps 735 mmHg 41%
    16:00 +31°C° 0.2 mm 3 mps 735 mmHg 44%
    17:00 +29°C° 0.4 mm 2 mps 735 mmHg 49%
    18:00 +27°C° 0.4 mm 2 mps 735 mmHg 53%
    19:00 +26°C° 0.4 mm 2 mps 735 mmHg 58%
    20:00 +25°C° 0.5 mm 2 mps 735 mmHg 59%
    21:00 +24°C° 0.5 mm 2 mps 736 mmHg 61%
    22:00 +24°C° 0.5 mm 2 mps 736 mmHg 62%
    23:00 +23°C° 0.1 mm 2 mps 736 mmHg 62%

    Day after tomorrow, 24 August, Friday

    Time Temperature Precipitation Wind Pressure Humidity
    00:00 +23°C° 0.1 mm 2 mps 735 mmHg 62%
    01:00 +23°C° 0.1 mm 2 mps 735 mmHg 62%
    02:00 +23°C° 0.1 mm 2 mps 735 mmHg 62%
    03:00 +21°C° 0.1 mm 2 mps 735 mmHg 62%
    04:00 +21°C° 0.1 mm 2 mps 735 mmHg 62%
    05:00 +23°C° 0 mm 2 mps 735 mmHg 59%
    06:00 +25°C° 0 mm 2 mps 735 mmHg 56%
    07:00 +26°C° 0 mm 1 mps 735 mmHg 54%
    08:00 +28°C° 0 mm 1 mps 735 mmHg 48%
    09:00 +30°C° 0 mm 1 mps 735 mmHg 42%
    10:00 +32°C° 0 mm 1 mps 735 mmHg 36%
    11:00 +32°C° 0 mm 2 mps 735 mmHg 35%
    12:00 +34°C° 0 mm 2 mps 734 mmHg 34%
    13:00 +34°C° 0 mm 3 mps 734 mmHg 33%
    14:00 +33°C° 0 mm 3 mps 734 mmHg 36%
    15:00 +33°C° 0 mm 3 mps 733 mmHg 38%
    16:00 +31°C° 0 mm 3 mps 733 mmHg 41%
    17:00 +29°C° 0 mm 2 mps 733 mmHg 48%
    18:00 +27°C° 0 mm 1 mps 733 mmHg 54%
    19:00 +24°C° 0 mm 1 mps 733 mmHg 61%
    20:00 +24°C° 0 mm 1 mps 734 mmHg 62%
    21:00 +23°C° 0 mm 1 mps 734 mmHg 64%
    22:00 +23°C° 0 mm 1 mps 734 mmHg 65%
    23:00 +22°C° 0 mm 1 mps 734 mmHg 65%

    25 August, Saturday

    Time Temperature Precipitation Wind Pressure Humidity
    00:00 +22°C° 0 mm 1 mps 734 mmHg 65%
    01:00 +22°C° 0 mm 1 mps 734 mmHg 65%
    02:00 +20°C° 0 mm 2 mps 733 mmHg 63%
    03:00 +20°C° 0 mm 2 mps 733 mmHg 62%
    04:00 +20°C° 0 mm 2 mps 733 mmHg 61%
    05:00 +23°C° 0 mm 2 mps 733 mmHg 58%
    06:00 +24°C° 0 mm 2 mps 733 mmHg 54%
    07:00 +26°C° 0 mm 1 mps 733 mmHg 50%
    08:00 +27°C° 0 mm 2 mps 733 mmHg 46%
    09:00 +29°C° 0 mm 2 mps 733 mmHg 42%
    10:00 +31°C° 0 mm 2 mps 733 mmHg 38%
    11:00 +31°C° 0 mm 2 mps 733 mmHg 38%
    12:00 +33°C° 0 mm 3 mps 733 mmHg 38%
    13:00 +33°C° 0 mm 3 mps 732 mmHg 38%
    14:00 +31°C° 0.1 mm 3 mps 732 mmHg 41%
    15:00 +31°C° 0.1 mm 3 mps 732 mmHg 43%
    16:00 +30°C° 0.1 mm 3 mps 732 mmHg 46%
    17:00 +28°C° 0.2 mm 2 mps 732 mmHg 53%
    18:00 +26°C° 0.2 mm 2 mps 732 mmHg 61%
    19:00 +24°C° 0.2 mm 1 mps 732 mmHg 69%
    20:00 +23°C° 0.1 mm 1 mps 732 mmHg 71%
    21:00 +23°C° 0.1 mm 2 mps 732 mmHg 73%
    22:00 +21°C° 0.1 mm 2 mps 732 mmHg 75%
    23:00 +21°C° 0.1 mm 2 mps 732 mmHg 76%

    26 August, Sunday

    Time Temperature Precipitation Wind Pressure Humidity
    00:00 +21°C° 0.1 mm 2 mps 732 mmHg 78%
    01:00 +20°C° 0.1 mm 2 mps 732 mmHg 79%
    02:00 +20°C° 0.1 mm 2 mps 732 mmHg 80%
    03:00 +20°C° 0.1 mm 2 mps 732 mmHg 82%
    04:00 +20°C° 0.1 mm 2 mps 732 mmHg 83%
    05:00 +21°C° 0.1 mm 2 mps 732 mmHg 79%
    06:00 +23°C° 0.1 mm 2 mps 732 mmHg 74%
    07:00 +25°C° 0.1 mm 2 mps 732 mmHg 70%
    08:00 +26°C° 0.1 mm 2 mps 732 mmHg 64%
    09:00 +27°C° 0.1 mm 3 mps 732 mmHg 57%
    10:00 +29°C° 0.1 mm 3 mps 732 mmHg 51%
    11:00 +29°C° 0.6 mm 4 mps 732 mmHg 51%
    12:00 +29°C° 0.6 mm 4 mps 732 mmHg 52%
    13:00 +29°C° 0.6 mm 4 mps 731 mmHg 53%
    14:00 +28°C° 1 mm 3 mps 731 mmHg 56%
    15:00 +28°C° 1 mm 3 mps 731 mmHg 59%
    16:00 +27°C° 1 mm 2 mps 731 mmHg 62%
    17:00 +26°C° 0.5 mm 2 mps 732 mmHg 67%
    18:00 +24°C° 0.5 mm 1 mps 732 mmHg 71%
    19:00 +23°C° 0.5 mm 1 mps 732 mmHg 76%
    20:00 +22°C° 0.3 mm 1 mps 732 mmHg 77%
    21:00 +22°C° 0.3 mm 1 mps 733 mmHg 79%
    22:00 +20°C° 0.3 mm 2 mps 733 mmHg 80%
    23:00 +20°C° 0.3 mm 2 mps 733 mmHg 82%

    27 August, Monday

    Time Temperature Precipitation Wind Pressure Humidity
    00:00 +20°C° 0.3 mm 2 mps 733 mmHg 84%
    01:00 +19°C° 0.3 mm 2 mps 733 mmHg 85%
    02:00 +19°C° 0.2 mm 3 mps 733 mmHg 86%
    03:00 +19°C° 0.2 mm 3 mps 733 mmHg 86%
    04:00 +18°C° 0.2 mm 3 mps 733 mmHg 86%
    05:00 +19°C° 0 mm 3 mps 734 mmHg 82%
    06:00 +19°C° 0 mm 4 mps 734 mmHg 78%
    07:00 +20°C° 0 mm 4 mps 734 mmHg 74%
    08:00 +22°C° 0 mm 4 mps 734 mmHg 65%
    09:00 +23°C° 0 mm 4 mps 735 mmHg 57%
    10:00 +26°C° 0 mm 3 mps 735 mmHg 48%
    11:00 +27°C° 0 mm 3 mps 735 mmHg 45%
    12:00 +28°C° 0 mm 3 mps 735 mmHg 41%
    13:00 +28°C° 0 mm 4 mps 735 mmHg 38%
    14:00 +28°C° 0 mm 4 mps 735 mmHg 38%
    15:00 +28°C° 0 mm 5 mps 735 mmHg 39%
    16:00 +27°C° 0 mm 5 mps 735 mmHg 40%
    17:00 +25°C° 0 mm 5 mps 735 mmHg 46%
    18:00 +22°C° 0 mm 4 mps 736 mmHg 52%
    19:00 +20°C° 0 mm 4 mps 736 mmHg 58%
    20:00 +19°C° 0 mm 4 mps 737 mmHg 62%
    21:00 +17°C° 0 mm 5 mps 737 mmHg 65%
    22:00 +16°C° 0 mm 5 mps 737 mmHg 68%
    23:00 +15°C° 0 mm 5 mps 737 mmHg 69%
    Show more